Location: Newark
(52.3500°N, 175.9667°E)
Time: 15:05:25
(UTC+00:00)

A-11 Canister half - Visible Passes

Search period start: 23 April 2021 00:00
Search period end: 03 May 2021 00:00
Orbit: 1525 x 1683 km, 47.3° (Epoch: 23 April)

Date Brightness Start Highest point End Pass type
(mag) Time Alt. Az. Time Alt. Az. Time Alt. Az.
23 Apr 9.9 08:40:50 10° W 08:49:53 39° SW 08:58:19 12° SSE visible
23 Apr 10.8 10:48:25 10° W 10:52:38 13° WSW 10:56:37 10° SSW visible
24 Apr 10.0 08:19:07 10° W 08:28:15 40° SW 08:37:20 10° SSE visible
24 Apr 10.8 10:26:21 10° W 10:31:05 14° SW 10:35:47 10° SSW visible
25 Apr 10.0 07:57:25 10° W 08:06:38 41° SSW 08:15:47 10° SSE visible
25 Apr 10.8 10:04:21 10° W 10:09:32 15° SW 10:14:40 10° SSW visible
26 Apr 10.8 09:42:25 10° W 09:47:58 16° SW 09:53:30 10° SSW visible
27 Apr 10.8 09:20:30 10° W 09:26:24 17° SW 09:32:18 10° SSW visible
28 Apr 10.8 08:58:37 10° W 09:04:51 18° SW 09:11:03 10° SSW visible
29 Apr 10.8 08:36:46 10° W 08:43:17 20° SW 08:49:46 10° S visible
30 Apr 10.9 08:14:56 10° W 08:21:42 21° SW 08:28:28 10° S visible
